User: anonymous   Login
Location: Newark
(50.0306°N, 2.3272°E)
Time: 19:30:48
(UTC+00:00)
Language:

UWE-3 - Orbit

View from above orbital plane
View from above orbital plane
View from above satellite
View from above satellite

Ground track
Ground track

The orbit data is extracted from the following two-line orbital elements,

1 39446U 13066AG  20023.49938485 +.00000186 +00000-0 +31098-4 0  9999
2 39446 097.5891 021.3735 0071346 066.5328 294.3363 14.78482021331003
Epoch (UTC): 23 January 2020 11:59:06
Eccentricity: 0.0071346
inclination: 97.5891°
perigee height: 584 km
apogee height: 684 km
right ascension of ascending node: 21.3735°
argument of perigee: 66.5328°
revolutions per day: 14.78482021
mean anomaly at epoch: 294.3363°
orbit number at epoch: 33100

The dashed part of the orbit path shows where the satellite is in the earth's shadow,  

DLR